Weather History for Quillayute, WA

Change the Weather History Date:

Saturday, January 5, 2013

  Actual Average Record
Temperature  
Mean Temperature 43 °F 41 °F  
Max Temperature 49 °F 46 °F 55 °F (1981)
Min Temperature 36 °F 36 °F 9 °F (1982)
Degree Days  
Heating Degree Days 22 24  
Month to date heating degree days 120  
Since 1 July heating degree days 2598  
Cooling Degree Days 0 0  
Month to date cooling degree days 0  
Year to date cooling degree days 0  
Moisture  
Dew Point 40 °F    
Average Humidity 95    
Maximum Humidity 100    
Minimum Humidity 71    
Precipitation  
Precipitation 0.27 in 0.47 in 3.05 in (2011)
Month to date precipitation 2.33  
Year to date precipitation 2.33  
Sea Level Pressure  
Sea Level Pressure 30.10 in    
Wind  
Wind Speed 3 mph (SSE)    
Max Wind Speed 14 mph    
Max Gust Speed 21 mph    
Visibility 3 miles    
Events Fog , Rain    
T = Trace of Precipitation, MM = Missing Value Source: NWS Daily Summary

Daily Weather History Graph

Daily Weather History Graph

Search for Another Location

Airport:

Trip Planner

Search our weather history database for the weather conditions in past years. The results will help you decide how hot, cold, wet, or windy it might be!

Date:

Astronomy

Jan. 05, 2013 Rise Set
Actual Time 8:07 AM PST 4:40 PM PST
Civil Twilight 7:31 AM PST 5:16 PM PST
Nautical Twilight 6:52 AM PST 5:55 PM PST
Astronomical Twilight 6:14 AM PST 6:33 PM PST
Moon 1:04 AM PST (1/5) 11:47 AM PST (1/5)
Length of Visible Light 9h 45m
Length of Day
8h 33m
Last Quarter, 43% of the Moon is Illuminated
Jan 5
Last Quarter
Jan 11
New
Jan 18
First Quarter
Jan 26
Full
Feb 3
Last Quarter

Hourly Weather History & Observations

Time (PST) Temp. Windchill Dew Point Humidity Pressure Visibility Wind Dir Wind Speed Gust Speed Precip Events Conditions
12:53 AM 43.0 °F - 41.0 °F 93% 30.12 in 6.0 mi Calm Calm - N/A   Overcast
1:53 AM 42.1 °F 38.4 °F 41.0 °F 96% 30.13 in 6.0 mi East 5.8 mph - N/A   Overcast
2:53 AM 43.0 °F 41.3 °F 41.0 °F 93% 30.13 in 6.0 mi East 3.5 mph - N/A   Overcast
3:53 AM 42.1 °F - 41.0 °F 96% 30.12 in 6.0 mi Calm Calm - N/A   Overcast
4:53 AM 42.1 °F 40.2 °F 41.0 °F 96% 30.10 in 6.0 mi East 3.5 mph - N/A   Scattered Clouds
5:53 AM 42.1 °F 40.2 °F 39.9 °F 92% 30.09 in 6.0 mi East 3.5 mph - N/A   Overcast
6:53 AM 43.0 °F 37.7 °F 39.9 °F 89% 30.05 in 6.0 mi ENE 9.2 mph - N/A   Scattered Clouds
7:53 AM 42.1 °F 38.4 °F 39.9 °F 92% 30.05 in 6.0 mi East 5.8 mph - N/A   Clear
8:53 AM 41.0 °F 38.0 °F 39.9 °F 96% 30.08 in 4.0 mi NNE 4.6 mph - N/A   Clear
9:53 AM 42.1 °F - 41.0 °F 96% 30.10 in 4.0 mi Calm Calm - N/A   Mostly Cloudy
10:53 AM 45.0 °F - 41.0 °F 86% 30.09 in 5.0 mi Calm Calm - N/A   Clear
11:53 AM 48.0 °F - 39.0 °F 71% 30.07 in 5.0 mi Variable 4.6 mph - N/A   Haze
12:53 PM 48.0 °F - 39.9 °F 74% 30.04 in 5.0 mi Variable 6.9 mph 19.6 mph N/A   Haze
1:53 PM 46.9 °F - 41.0 °F 80% 30.06 in 2.0 mi SSW 10.4 mph 16.1 mph 0.01 in Rain Light Rain
1:57 PM 46.4 °F 42.4 °F 41.0 °F 81% 30.05 in 1.2 mi South 8.1 mph - N/A Rain Rain
2:19 PM 44.6 °F 39.7 °F 42.8 °F 93% 30.06 in 1.5 mi South 9.2 mph - 0.06 in Rain Light Rain
2:30 PM 44.6 °F 39.2 °F 42.8 °F 93% 30.06 in 1.0 mi South 10.4 mph 16.1 mph 0.08 in Rain Light Rain
2:41 PM 44.6 °F 40.7 °F 42.8 °F 93% 30.06 in 1.5 mi South 6.9 mph 17.3 mph 0.10 in Rain Light Rain
2:53 PM 45.0 °F 40.1 °F 43.0 °F 93% 30.07 in 1.5 mi SSW 9.2 mph - 0.11 in Rain Light Rain
3:25 PM 44.6 °F 38.8 °F 42.8 °F 93% 30.08 in 0.8 mi SW 11.5 mph 19.6 mph N/A Rain Rain
3:38 PM 42.8 °F 37.5 °F 42.8 °F 100% 30.08 in 1.0 mi West 9.2 mph - 0.06 in Rain Light Rain
3:45 PM 42.8 °F 39.3 °F 42.8 °F 100% 30.08 in 1.2 mi West 5.8 mph - 0.07 in Rain Light Rain
3:53 PM 43.0 °F 40.3 °F 42.1 °F 97% 30.09 in 1.5 mi West 4.6 mph - 0.07 in Rain Light Rain
4:08 PM 42.8 °F 41.1 °F 42.8 °F 100% 30.09 in 2.0 mi West 3.5 mph - 0.01 in Rain Light Rain
4:45 PM 42.8 °F - 42.8 °F 100% 30.10 in 1.8 mi Calm Calm - 0.03 in Rain Light Rain
4:53 PM 43.0 °F - 42.1 °F 97% 30.10 in 1.5 mi Calm Calm - 0.04 in Rain Light Rain
5:09 PM 42.8 °F 40.1 °F 42.8 °F 100% 30.09 in 3.0 mi ESE 4.6 mph - 0.03 in Rain Light Rain
5:53 PM 41.0 °F - 39.9 °F 96% 30.10 in 5.0 mi Calm Calm - 0.03 in   Partly Cloudy
6:19 PM 39.2 °F - 39.2 °F 100% 30.09 in 1.8 mi Calm Calm - N/A   Clear
6:29 PM 39.2 °F - 37.4 °F 93% 30.09 in 3.0 mi Calm Calm - N/A   Clear
6:53 PM 37.9 °F - 37.9 °F 100% 30.11 in 3.0 mi Calm Calm - N/A   Partly Cloudy
6:55 PM 37.4 °F - 37.4 °F 100% 30.10 in 1.8 mi Calm Calm - N/A   Partly Cloudy
7:02 PM 37.4 °F - 37.4 °F 100% 30.10 in 0.8 mi Calm Calm - N/A   Mostly Cloudy
7:42 PM 37.4 °F - 37.4 °F 100% 30.12 in 1.5 mi Calm Calm - N/A   Overcast
7:50 PM 37.4 °F - 37.4 °F 100% 30.12 in 0.8 mi Calm Calm - N/A   Overcast
7:53 PM 37.9 °F - 37.0 °F 97% 30.12 in 0.5 mi Calm Calm - N/A Fog Fog
8:15 PM 39.2 °F - 39.2 °F 100% 30.12 in 1.5 mi Calm Calm - N/A   Overcast
8:18 PM 39.2 °F - 39.2 °F 100% 30.11 in 3.0 mi Calm Calm - N/A   Overcast
8:22 PM 39.2 °F - 39.2 °F 100% 30.11 in 1.5 mi Calm Calm - N/A   Overcast
8:24 PM 39.2 °F - 39.2 °F 100% 30.11 in 0.8 mi Calm Calm - N/A   Overcast
8:53 PM 39.0 °F - 37.9 °F 96% 30.12 in 0.5 mi Calm Calm - N/A Fog Fog
9:22 PM 39.2 °F - 39.2 °F 100% 30.11 in 1.5 mi Calm Calm - 0.00 in Rain Light Rain
9:25 PM 39.2 °F - 39.2 °F 100% 30.11 in 3.0 mi Calm Calm - 0.00 in Rain Light Rain
9:53 PM 37.9 °F - 37.9 °F 100% 30.12 in 5.0 mi Calm Calm - 0.00 in   Mostly Cloudy
10:53 PM 39.0 °F - 39.0 °F 100% 30.12 in 4.0 mi Calm Calm - 0.00 in Rain Light Rain
11:53 PM 39.9 °F - 39.0 °F 97% 30.12 in 3.0 mi Calm Calm - 0.01 in Rain Light Rain